EST,Max TemperatureF,Mean TemperatureF,Min TemperatureF,Max Dew PointF,MeanDew PointF,Min DewpointF,Max Humidity, Mean Humidity, Min Humidity, Max Sea Level PressureIn, Mean Sea Level PressureIn, Min Sea Level PressureIn, Max VisibilityMiles, Mean VisibilityMiles, Min VisibilityMiles, Max Wind SpeedMPH, Mean Wind SpeedMPH, Max Gust SpeedMPH,PrecipitationIn, CloudCover, Events, WindDirDegrees
2012-12-1,34,31,28,34,27,19,100,83,61,30.57,30.51,30.46,10,6,1,9,5,,0.00,8,Snow,63
2012-12-2,50,42,35,46,42,34,100,91,74,30.44,30.22,30.11,9,4,0,10,3,,0.11,7,Fog-Rain,219
2012-12-3,55,44,32,47,42,30,100,90,60,30.29,30.17,30.10,10,4,0,7,3,,0.00,4,Fog,269
2012-12-4,55,44,32,53,43,30,100,94,86,30.30,30.20,29.99,9,3,0,8,1,,0.08,6,Fog-Rain,162
2012-12-5,55,44,32,52,36,18,100,67,43,30.23,30.02,29.91,10,9,1,14,7,28,0.00,5,Rain,290
2012-12-6,37,29,21,19,15,12,85,58,39,30.37,30.31,30.22,10,10,10,12,6,21,0.00,0,,336
2012-12-7,39,29,19,39,30,17,100,89,70,30.29,30.16,30.04,10,6,2,6,1,,0.09,6,Rain,130
2012-12-8,48,44,39,46,42,39,100,95,87,30.02,29.95,29.88,9,2,0,6,1,,0.20,8,Fog-Rain,265
2012-12-9,46,42,39,46,39,31,100,88,65,30.27,30.16,30.00,10,6,0,10,3,,0.14,6,Fog-Rain,42
2012-12-10,59,49,39,56,48,39,100,95,87,30.02,29.74,29.56,10,5,0,13,4,21,0.03,8,Fog-Rain,193
2012-12-11,53,44,30,52,34,24,94,73,47,30.20,29.87,29.59,10,10,4,16,6,23,0.03,7,Rain,345
2012-12-12,41,34,26,27,24,21,92,75,47,30.45,30.36,30.21,10,10,10,6,1,,0.00,0,,260
2012-12-13,44,34,23,28,23,21,92,77,43,30.49,30.41,30.33,10,9,6,8,1,,0.00,0,,348
2012-12-14,48,34,21,25,22,18,92,71,34,30.31,30.22,30.14,10,9,5,12,2,,0.00,0,,252
2012-12-15,44,32,21,29,25,19,92,76,49,30.34,30.28,30.24,10,9,6,5,0,,0.00,0,,52
2012-12-16,37,36,35,36,33,28,97,88,75,30.25,30.12,29.97,10,5,2,10,7,,0.02,8,Rain,68
2012-12-17,39,37,35,38,36,34,100,95,93,29.95,29.87,29.69,10,4,2,10,8,17,0.28,8,Rain,60
2012-12-18,48,44,39,45,41,35,100,90,76,29.65,29.53,29.46,10,8,2,12,6,21,0.70,8,Rain,288
2012-12-19,46,41,35,32,25,23,67,54,41,30.12,29.82,29.57,10,10,10,18,9,29,0.00,2,,312
2012-12-20,42,35,28,37,28,22,89,70,53,30.22,30.10,29.89,10,10,6,14,5,21,0.03,3,Rain,91
2012-12-21,55,46,36,54,38,27,100,80,66,29.80,29.28,29.08,10,7,1,24,15,38,2.03,8,Rain,180
2012-12-22,35,34,32,32,24,16,93,70,48,29.76,29.47,29.29,10,7,2,20,11,33,0.00,7,Snow,269
2012-12-23,39,34,30,23,20,18,64,57,50,29.94,29.88,29.76,10,10,10,18,10,29,0.00,1,,255
2012-12-24,37,28,19,29,23,18,96,79,50,30.09,30.02,29.95,10,7,1,8,2,,0.07,3,Snow,65
2012-12-25,37,32,27,31,28,21,100,84,67,30.26,30.06,29.94,10,8,2,10,4,18,0.03,6,Rain-Snow,356
2012-12-26,35,28,21,32,25,17,100,84,61,30.31,29.98,29.60,10,5,0,20,8,29,0.35,5,Fog-Rain-Snow,60
2012-12-27,37,34,28,36,31,20,93,86,66,29.79,29.50,29.32,10,5,2,20,14,30,0.38,8,Rain,360
2012-12-28,36,30,23,23,21,18,92,70,57,30.08,29.99,29.80,10,10,10,15,7,20,0.00,2,,315
2012-12-29,30,26,21,28,26,19,100,90,80,30.04,29.69,29.50,10,4,0,10,3,17,0.22,7,Fog-Snow,21
2012-12-30,32,28,25,24,15,9,88,60,44,30.12,29.87,29.58,10,10,10,17,10,25,0.00,3,,300
2012-12-31,35,27,19,21,18,9,74,61,53,30.14,30.03,29.86,10,10,10,12,6,22,0.00,2,,244